Regional Weather Roundup
Issued by NWS Raleigh/Durham, NC

Home | Current Version | Previous Version | Text Only | Print | Product List | Glossary On
Versions: 1 2 3 4 5 6 7 8 9 10 11 12 13 14 15 16 17 18 19 20 21 22 23 24 25 26 27 28
000
ASUS42 KRAH 062310
RWRRAH
NORTH CAROLINA WEATHER ROUNDUP
NATIONAL WEATHER SERVICE RALEIGH NC
700 PM EDT THU MAY 06 2021

NOTE: "FAIR" INDICATES FEW OR NO CLOUDS BELOW 12,000 FEET WITH NO
SIGNIFICANT WEATHER AND/OR OBSTRUCTIONS TO VISIBILITY.

NCZ001-053-055-056-065-067-070000-
WESTERN NORTH CAROLINA

CITY           SKY/WX    TMP DP  RH WIND       PRES   REMARKS
ASHEVILLE      SUNNY     62  33  33 NW12      29.97S
JEFFERSON      SUNNY     56  29  35 W6        29.98S
MORGANTON      SUNNY     71  37  28 N5        29.95S
HICKORY        SUNNY     68  45  43 CALM      29.92S
WILKESBORO     NOT AVBL
RUTHERFORDTON  MOSUNNY   66  46  48 S6        29.93S
MOUNT AIRY     NOT AVBL
BOONE          MOSUNNY   56  24  29 NW14      29.99S
$$

NCZ021-022-025-041-071-084-088-070000-
CENTRAL NORTH CAROLINA

CITY           SKY/WX    TMP DP  RH WIND       PRES   REMARKS
CHARLOTTE      MOSUNNY   70  44  39 W5        29.93F
GREENSBORO     MOSUNNY   66  38  35 VRB6      29.93F
WINSTON-SALEM  SUNNY     68  35  29 CALM      29.94S
RALEIGH-DURHAM MOSUNNY   66  46  48 NE3       29.96R
FORT BRAGG     PTSUNNY   66  51  57 NE10      29.93R
FAYETTEVILLE   CLOUDY    68  51  54 NE7       29.93R
BURLINGTON     SUNNY     68  42  38 CALM      29.94S
ROXBORO        NOT AVBL
HENDERSON      NOT AVBL
LOUISBURG      SUNNY     64  45  48 CALM      29.99S
LAURINBURG     PTSUNNY   73  48  41 NW8       29.93S
$$

NCZ011-015-027-028-043-044-047-080-103-070000-
NORTHEASTERN NORTH CAROLINA

CITY           SKY/WX    TMP DP  RH WIND       PRES   REMARKS
ROCKY MT-WILSO SUNNY     68  47  46 NE3       29.96S
GREENVILLE     MOSUNNY   64  48  55 CALM      29.98S
WASHINGTON     CLOUDY    65  49  56 N5        29.96F
ELIZABETH CITY PTSUNNY   60  46  59 E8        29.98R
MANTEO         PTCLDY    58  44  58 E9        29.99R
CAPE HATTERAS  CLOUDY    61  46  57 E7        29.97S
$$

NCZ078-087-090-091-093-098-101-070000-
SOUTHEASTERN NORTH CAROLINA

CITY           SKY/WX    TMP DP  RH WIND       PRES   REMARKS
GOLDSBORO      MOSUNNY   65  49  55 NE6       29.93S
KINSTON        CLOUDY    66  50  55 NE6       29.96S
KENANSVILLE    PTSUNNY   66  54  63 CALM      29.94F
NEW BERN       CLOUDY    65  52  62 SE8       29.96S
CHERRY POINT   MOSUNNY   65  52  62 NE10      29.96S
BEAUFORT       CLOUDY    63  52  67 E7        29.95S
JACKSONVILLE   CLOUDY    66  54  65 SE10      29.94S
WILMINGTON     PTSUNNY   68  53  58 SE9       29.93F
$$




USA.gov is the U.S. government's official web portal to all federal, state and local government web resources and services.